User: anonymous   Login
Location: 相模原市立博物館
(35.5593°N, 139.3931°E)
Time: 15:22:06
(UTC+09:00)
Language:

AO-92 - Orbit

View from above orbital plane
View from above orbital plane
View from above satellite
View from above satellite

Ground track
Ground track

The orbit data is extracted from the following two-line orbital elements,

1 43137U 18004AC  22027.15852000  .00004693  00000-0  18152-3 0  9997
2 43137  97.3853 103.7976 0009434 134.9334 225.2671 15.26659961224772
Epoch (UTC): 27 January 2022 03:48:16
Eccentricity: 0.0009434
inclination: 97.3853°
perigee height: 479 km
apogee height: 492 km
right ascension of ascending node: 103.7976°
argument of perigee: 134.9334°
revolutions per day: 15.26659961
mean anomaly at epoch: 225.2671°
orbit number at epoch: 22477

The dashed part of the orbit path shows where the satellite is in the earth's shadow,  

DLR